Location: Ferchesar
(52.6477°N, 12.4298°E)
Time: 07:10:23
(UTC+02:00)

Transit 4A - Pass Details

Date: 02 March 2021
Orbit: 869 x 976 km, 66.8° (Epoch: 12 April)

Event Time Altitude Azimuth Distance (km) Brightness Sun altitude
Rises 19:12:29 0° 320° (NW) 3,596 11.7 -13.1°
Reaches altitude 10° 19:15:04 10° 318° (NW) 2,633 11.0 -13.5°
Maximum altitude 19:21:08 69° 236° (WSW) 968 8.2 -14.4°
Drops below altitude 10° 19:26:59 10° 155° (SSE) 2,547 9.9 -15.3°
Enters shadow 19:28:21 - 153° (SSE) 3,060 10.3 -15.5°
Sets 19:29:26 0° 153° (SSE) 3,471 - -15.6°
